Aduy, Russia

5:43 AM +05 on April 30, 2017 (GMT +0500)
Aduy

Weather History for 28440 - June, 2013

Change the Weather History Date:

Thursday, June 27, 2013

  Actual Average Record
Temperature  
Mean Temperature 68 °F -  
Max Temperature 80 °F - - ()
Min Temperature 57 °F - - ()
Cooling Degree Days 4    
Growing Degree Days 18 (Base 50)    
Moisture  
Dew Point 57 °F    
Average Humidity 65    
Maximum Humidity 94    
Minimum Humidity 28    
Precipitation  
Precipitation 0.00 in 0.11 in - ()
Sea Level Pressure  
Sea Level Pressure 29.96 in    
Wind  
Wind Speed 4 mph ()    
Max Wind Speed 13 mph    
Max Gust Speed 18 mph    
Visibility 6.6 miles    
Events      
T = Trace of Precipitation, MM = Missing Value Source: Averaged Metar Reports

Daily Weather History Graph

Daily Weather History Graph

Search for Another Location

Airport or City:

Trip Planner

Search our weather history database for the weather conditions in past years. The results will help you decide how hot, cold, wet, or windy it might be!

Date:

Astronomy

Jun. 27, 2013 Rise Set
Actual Time 5:06 AM +06 10:54 PM +06
Civil Twilight 3:59 AM +06 12:00 AM +06
Nautical Twilight 2:32 AM +06 1:28 AM +06
Astronomical Twilight Sun does not set Sun does not set
Moon 12:06 AM +06 (6/27) 10:40 AM +06 (6/27)
Length of Visible Light 20h 01m
Length of Day
17h 47m
Waning Gibbous, 80% of the Moon is Illuminated
Jun 27
Waning Gibbous
Jun 30
Last Quarter
Jul 8
New
Jul 16
First Quarter
Jul 23
Full

Hourly Weather History & Observations

Time (+06) Temp. Dew Point Humidity Pressure Visibility Wind Dir Wind Speed Gust Speed Precip Events Conditions
12:00 AM 73 °F 53 °F 38% 29.92 in 6 mi Calm Calm - -   Clear
12:00 AM 64.4 °F 55.4 °F 73% 29.95 in - Calm Calm - N/A   Clear
12:30 AM 64.4 °F 55.4 °F 73% 29.95 in - Calm Calm - N/A   Clear
1:00 AM 62.6 °F 57.2 °F 82% 29.95 in - WNW 4.5 mph - N/A   Clear
1:30 AM 62.6 °F 55.4 °F 77% 29.95 in - WNW 2.2 mph - N/A   Clear
2:00 AM 60.8 °F 55.4 °F 82% 29.95 in - NNW 4.5 mph - N/A   Clear
2:30 AM 59.0 °F 55.4 °F 88% 29.95 in - NNW 4.5 mph - N/A   Clear
3:00 AM 69 °F 57 °F 56% 29.92 in 6 mi NW 2.2 mph - -   Clear
3:00 AM 59.0 °F 55.4 °F 88% 29.95 in - WNW 2.2 mph - N/A   Clear
3:30 AM 59.0 °F 55.4 °F 88% 29.95 in - NW 2.2 mph - N/A   Clear
4:00 AM 59.0 °F 55.4 °F 88% 29.95 in 6.2 mi NW 2.2 mph - N/A   Overcast
4:30 AM 57.2 °F 53.6 °F 88% 29.95 in 6.2 mi WNW 4.5 mph - N/A   Overcast
5:00 AM 57.2 °F 55.4 °F 94% 29.95 in 6.2 mi WNW 2.2 mph - N/A   Overcast
5:30 AM 60.8 °F 59.0 °F 94% 29.95 in - WNW 4.5 mph - N/A   Clear
6:00 AM 67 °F 59 °F 69% 29.93 in 31 mi NNW 4.5 mph - -   Overcast
6:00 AM 60.8 °F 57.2 °F 88% 29.95 in - NW 2.2 mph - N/A   Clear
6:30 AM 60.8 °F 59.0 °F 94% 29.95 in - NW 4.5 mph - N/A   Clear
7:00 AM 64.4 °F 62.6 °F 94% 29.95 in - NNW 4.5 mph - N/A   Clear
7:30 AM 64.4 °F 60.8 °F 88% 29.95 in - North 6.7 mph - N/A   Clear
8:00 AM 64.4 °F 59.0 °F 83% 29.95 in - North 8.9 mph - N/A   Clear
8:30 AM 64.4 °F 59.0 °F 83% 29.95 in - North 8.9 mph - N/A   Clear
9:00 AM 68 °F 58 °F 61% 29.95 in 31 mi ENE 2.2 mph - -  
9:00 AM 66.2 °F 59.0 °F 78% 29.98 in - North 6.7 mph - N/A   Clear
9:30 AM 68.0 °F 60.8 °F 78% 29.98 in - North 6.7 mph - N/A   Clear
10:00 AM 69.8 °F 60.8 °F 73% 29.98 in - North 6.7 mph - N/A   Clear
10:30 AM 71.6 °F 60.8 °F 69% 29.98 in - NNE 11.2 mph - N/A   Clear
11:00 AM 71.6 °F 59.0 °F 64% 29.98 in - NNE 13.4 mph - N/A   Clear
11:30 AM 68.0 °F 59.0 °F 73% 29.98 in - North 13.4 mph - N/A   Clear
12:00 PM 73 °F 56 °F 46% 29.96 in 31 mi NNW 2.2 mph - -   Mostly Cloudy
12:00 PM 69.8 °F 59.0 °F 68% 29.98 in - North 13.4 mph - N/A   Clear
12:30 PM 71.6 °F 60.8 °F 69% 29.98 in 6.2 mi North 11.2 mph - N/A   Overcast
1:00 PM 71.6 °F 59.0 °F 64% 29.98 in 6.2 mi North 11.2 mph 17.9 mph N/A   Mostly Cloudy
1:30 PM 71.6 °F 60.8 °F 69% 29.98 in 6.2 mi North 8.9 mph - N/A   Mostly Cloudy
2:00 PM 73.4 °F 60.8 °F 65% 29.98 in 6.2 mi NE 4.5 mph - N/A   Mostly Cloudy
2:30 PM 75.2 °F 59.0 °F 57% 29.98 in 6.2 mi NE 8.9 mph - N/A   Mostly Cloudy
3:00 PM 78 °F 54 °F 33% 29.95 in 12 mi ENE 2.2 mph - -   Mostly Cloudy
3:00 PM 77.0 °F 55.4 °F 47% 29.98 in 6.2 mi East 8.9 mph - N/A   Mostly Cloudy
3:30 PM 77.0 °F 55.4 °F 47% 29.98 in - NE 4.5 mph - N/A   Clear
4:00 PM 78.8 °F 55.4 °F 44% 29.95 in - NNE 8.9 mph 17.9 mph N/A   Clear
4:30 PM 78.8 °F 57.2 °F 47% 29.95 in - ENE 6.7 mph - N/A   Clear
5:00 PM 78.8 °F 57.2 °F 47% 29.95 in - NE 6.7 mph - N/A   Clear
5:30 PM 77.0 °F 57.2 °F 50% 29.95 in - NNE 11.2 mph - N/A   Clear
6:00 PM 80 °F 53 °F 28% 29.93 in 31 mi ENE 4.5 mph - -   Mostly Cloudy
6:00 PM 78.8 °F 57.2 °F 47% 29.95 in - North 6.7 mph - N/A   Clear
6:30 PM 78.8 °F 57.2 °F 47% 29.95 in - NNE 6.7 mph - N/A   Clear
7:00 PM 78.8 °F 57.2 °F 47% 29.95 in - NE 8.9 mph - N/A   Clear
7:30 PM 78.8 °F 57.2 °F 47% 29.95 in - NE 8.9 mph - N/A   Clear
8:00 PM 78.8 °F 57.2 °F 47% 29.95 in - NE 8.9 mph - N/A   Clear
8:30 PM 78.8 °F 57.2 °F 47% 29.95 in - NNE 8.9 mph - N/A   Clear
9:00 PM 78 °F 52 °F 30% 29.93 in 31 mi ENE 2.2 mph - -  
9:00 PM 77.0 °F 57.2 °F 50% 29.95 in - NNE 6.7 mph - N/A   Clear
9:30 PM 75.2 °F 59.0 °F 57% 29.95 in - NE 6.7 mph - N/A   Clear
10:00 PM 75.2 °F 57.2 °F 53% 29.98 in - NE 6.7 mph - N/A   Clear
10:30 PM 73.4 °F 57.2 °F 57% 29.98 in - North 4.5 mph - N/A   Clear
11:00 PM 68.0 °F 57.2 °F 68% 29.98 in - Calm Calm - N/A   Clear
11:30 PM 64.4 °F 55.4 °F 73% 29.98 in - WNW 2.2 mph - N/A   Clear